| State | Michigan | Latest | Flood (5450 cfs) | |
| River | Manistique River | Rating | Observed | Estimated |
| Updated | 2026-05-05 9:45 (29 minutes ago) | Flood - The river is flooding. Obstacles can be treacherous or deadly. The river should be avoided at this stage for casual trips and definitely for the inexperienced. Trips should be attempted only with protective gear and equipment.Flood | (none) | 3996 |
| Discharge | 5450 cfs (median: 2870 cfs) | High - The river is high and potentially dangerous, especially for the young and / or inexperienced. Normal stream obstacles are sometimes difficult to navigate. Extended distances can be attempted, but canoe travel may not be advisable.High | (none) | 2873 |
| Height | 10 feet | Good - Conditions are ideal for a canoe or kayak. Boats typically will drag on fewer than one-quarter of riffles, if at all, and portages are unnecessary or rare. Normal float lengths can be attempted without a problem.Good | (none) | 2067 |
| Trend | Falling (falling over 24 hours) | Low - River is low but can still be floated. Some riffles are okay but most come with significant dragging and might need a portage. Float lengths should be reduced to accommodate low flow, dragging, and portages.Low | (none) | 1133 |
| USGS | USGS Site ( Duck Duck Go Maps) | Poor - River is too low to float comfortably. Most or all riffles will drag or must be portaged and some obstacles (such as slick shelf rock) cause undue problems. Avoid the river at this stage for casual paddling trips.Poor | (none) | 589 |
A total of 1 rows are displayed.
| Miles | 6 |
| Trips | 1 |
| People | 9 |
| Dates | 1 |
| Years | 1 |
| Months | 1 |
| Rows | 1 |
| Sources | 1 |
BLG - Bluegill
CCF - Channel Catfish
CP - Chain Pickerel
FWD - Freshwater Drum
GSF - Green Sunfish
KSB - Kentucky Spotted Bass
LMB - Largemouth Bass
LSF - Longear Sunfish
RB - Rock Bass / Goggle Eye
RSF - Redear Sunfish
RT - Rainbow Trout
SMB - Smallmouth Bass
WB - White Bass
WF - Whitefish
WL - WalleyeThe classic River Trips application is still available for use. It is updated with the new system using a data retrofit. It is no longer maintained. The original River Trips application is no longer updated (as of 1 Dec 2016) but can be checked for errors or for the condition of the data before it was converted to the new system.
| Observation | Height | Discharge | Maximum Discharge | Minimum Discharge | Mean Discharge | P05 | P10 | P20 | P25 | P50 (Median) | P75 | P80 | P90 | P95 |
|---|---|---|---|---|---|---|---|---|---|---|---|---|---|---|
| 2026-05-05 09:45 | 1 | 5450 | 8150 (1972) | 588 (2010) | 3190 | 1040 | 1290 | 1700 | 1840 | 2870 | 4060 | 4470 | 5740 | 6770 |
| 2026-05-05 06:45 | 10.02 | 5490 | 8150 (1972) | 588 (2010) | 3190 | 1040 | 1290 | 1700 | 1840 | 2870 | 4060 | 4470 | 5740 | 6770 |
| 2026-05-05 05:45 | 10.03 | 5510 | 8150 (1972) | 588 (2010) | 3190 | 1040 | 1290 | 1700 | 1840 | 2870 | 4060 | 4470 | 5740 | 6770 |
| 2026-05-05 04:45 | 10.06 | 5580 | 8150 (1972) | 588 (2010) | 3190 | 1040 | 1290 | 1700 | 1840 | 2870 | 4060 | 4470 | 5740 | 6770 |
| 2026-05-05 03:45 | 10.06 | 5580 | 8150 (1972) | 588 (2010) | 3190 | 1040 | 1290 | 1700 | 1840 | 2870 | 4060 | 4470 | 5740 | 6770 |
| 2026-05-05 00:45 | 10.08 | 5620 | 8150 (1972) | 588 (2010) | 3190 | 1040 | 1290 | 1700 | 1840 | 2870 | 4060 | 4470 | 5740 | 6770 |
| 2026-05-04 23:45 | 10.12 | 5710 | 8150 (1972) | 588 (2010) | 3190 | 1040 | 1290 | 1700 | 1840 | 2870 | 4060 | 4470 | 5740 | 6770 |
| 2026-05-04 22:45 | 10.11 | 5690 | 8750 (1972) | 593 (2010) | 3310 | 1090 | 1330 | 1740 | 1910 | 2990 | 4210 | 4660 | 6280 | 6800 |
| 2026-05-04 21:45 | 10.12 | 5710 | 8750 (1972) | 593 (2010) | 3310 | 1090 | 1330 | 1740 | 1910 | 2990 | 4210 | 4660 | 6280 | 6800 |
| 2026-05-04 20:45 | 10.11 | 5690 | 8750 (1972) | 593 (2010) | 3310 | 1090 | 1330 | 1740 | 1910 | 2990 | 4210 | 4660 | 6280 | 6800 |
| 2026-05-04 19:45 | 10.14 | 5760 | 8750 (1972) | 593 (2010) | 3310 | 1090 | 1330 | 1740 | 1910 | 2990 | 4210 | 4660 | 6280 | 6800 |
| 2026-05-04 18:45 | 10.15 | 5790 | 8750 (1972) | 593 (2010) | 3310 | 1090 | 1330 | 1740 | 1910 | 2990 | 4210 | 4660 | 6280 | 6800 |
| 2026-05-04 17:45 | 10.13 | 5740 | 8750 (1972) | 593 (2010) | 3310 | 1090 | 1330 | 1740 | 1910 | 2990 | 4210 | 4660 | 6280 | 6800 |
| 2026-05-04 16:45 | 10.18 | 5860 | 8750 (1972) | 593 (2010) | 3310 | 1090 | 1330 | 1740 | 1910 | 2990 | 4210 | 4660 | 6280 | 6800 |
| 2026-05-04 15:45 | 10.18 | 5860 | 8750 (1972) | 593 (2010) | 3310 | 1090 | 1330 | 1740 | 1910 | 2990 | 4210 | 4660 | 6280 | 6800 |
| 2026-05-04 14:45 | 10.18 | 5860 | 8750 (1972) | 593 (2010) | 3310 | 1090 | 1330 | 1740 | 1910 | 2990 | 4210 | 4660 | 6280 | 6800 |
| 2026-05-04 13:45 | 10.20 | 5910 | 8750 (1972) | 593 (2010) | 3310 | 1090 | 1330 | 1740 | 1910 | 2990 | 4210 | 4660 | 6280 | 6800 |
| 2026-05-04 12:45 | 10.20 | 5910 | 8750 (1972) | 593 (2010) | 3310 | 1090 | 1330 | 1740 | 1910 | 2990 | 4210 | 4660 | 6280 | 6800 |
| 2026-05-04 11:45 | 10.19 | 5880 | 8750 (1972) | 593 (2010) | 3310 | 1090 | 1330 | 1740 | 1910 | 2990 | 4210 | 4660 | 6280 | 6800 |
| 2026-05-04 10:45 | 10.25 | 6030 | 8750 (1972) | 593 (2010) | 3310 | 1090 | 1330 | 1740 | 1910 | 2990 | 4210 | 4660 | 6280 | 6800 |
| 2026-05-04 09:45 | 10.23 | 5980 | 8750 (1972) | 593 (2010) | 3310 | 1090 | 1330 | 1740 | 1910 | 2990 | 4210 | 4660 | 6280 | 6800 |
| 2026-05-04 08:45 | 10.26 | 6060 | 8750 (1972) | 593 (2010) | 3310 | 1090 | 1330 | 1740 | 1910 | 2990 | 4210 | 4660 | 6280 | 6800 |
| 2026-05-04 06:45 | 10.25 | 6030 | 8750 (1972) | 593 (2010) | 3310 | 1090 | 1330 | 1740 | 1910 | 2990 | 4210 | 4660 | 6280 | 6800 |
| 2026-05-04 05:45 | 10.27 | 6080 | 8750 (1972) | 593 (2010) | 3310 | 1090 | 1330 | 1740 | 1910 | 2990 | 4210 | 4660 | 6280 | 6800 |
| 2026-05-04 04:45 | 10.28 | 6110 | 8750 (1972) | 593 (2010) | 3310 | 1090 | 1330 | 1740 | 1910 | 2990 | 4210 | 4660 | 6280 | 6800 |
| 2026-05-04 03:45 | 10.29 | 6130 | 8750 (1972) | 593 (2010) | 3310 | 1090 | 1330 | 1740 | 1910 | 2990 | 4210 | 4660 | 6280 | 6800 |
| 2026-05-04 02:45 | 10.29 | 6130 | 8750 (1972) | 593 (2010) | 3310 | 1090 | 1330 | 1740 | 1910 | 2990 | 4210 | 4660 | 6280 | 6800 |
| 2026-05-04 01:45 | 10.32 | 6210 | 8750 (1972) | 593 (2010) | 3310 | 1090 | 1330 | 1740 | 1910 | 2990 | 4210 | 4660 | 6280 | 6800 |
| 2026-05-04 00:45 | 10.35 | 6290 | 8750 (1972) | 593 (2010) | 3310 | 1090 | 1330 | 1740 | 1910 | 2990 | 4210 | 4660 | 6280 | 6800 |
| 2026-05-03 23:45 | 10.34 | 6260 | 8750 (1972) | 593 (2010) | 3310 | 1090 | 1330 | 1740 | 1910 | 2990 | 4210 | 4660 | 6280 | 6800 |
| 2026-05-03 22:45 | 10.37 | 6340 | 9190 (1972) | 610 (2010) | 3400 | 1150 | 1340 | 1870 | 2060 | 3200 | 4510 | 4790 | 6220 | 7070 |
| 2026-05-03 21:45 | 10.38 | 6370 | 9190 (1972) | 610 (2010) | 3400 | 1150 | 1340 | 1870 | 2060 | 3200 | 4510 | 4790 | 6220 | 7070 |
| 2026-05-03 20:45 | 10.36 | 6310 | 9190 (1972) | 610 (2010) | 3400 | 1150 | 1340 | 1870 | 2060 | 3200 | 4510 | 4790 | 6220 | 7070 |
| 2026-05-03 19:45 | 10.36 | 6310 | 9190 (1972) | 610 (2010) | 3400 | 1150 | 1340 | 1870 | 2060 | 3200 | 4510 | 4790 | 6220 | 7070 |
| 2026-05-03 18:45 | 10.39 | 6390 | 9190 (1972) | 610 (2010) | 3400 | 1150 | 1340 | 1870 | 2060 | 3200 | 4510 | 4790 | 6220 | 7070 |
| 2026-05-03 17:45 | 10.41 | 6440 | 9190 (1972) | 610 (2010) | 3400 | 1150 | 1340 | 1870 | 2060 | 3200 | 4510 | 4790 | 6220 | 7070 |
| 2026-05-03 16:45 | 10.43 | 6500 | 9190 (1972) | 610 (2010) | 3400 | 1150 | 1340 | 1870 | 2060 | 3200 | 4510 | 4790 | 6220 | 7070 |
| 2026-05-03 15:45 | 10.39 | 6390 | 9190 (1972) | 610 (2010) | 3400 | 1150 | 1340 | 1870 | 2060 | 3200 | 4510 | 4790 | 6220 | 7070 |
| 2026-05-03 14:45 | 10.43 | 6500 | 9190 (1972) | 610 (2010) | 3400 | 1150 | 1340 | 1870 | 2060 | 3200 | 4510 | 4790 | 6220 | 7070 |
| 2026-05-03 13:45 | 10.43 | 6500 | 9190 (1972) | 610 (2010) | 3400 | 1150 | 1340 | 1870 | 2060 | 3200 | 4510 | 4790 | 6220 | 7070 |
| 2026-05-03 12:45 | 10.45 | 6550 | 9190 (1972) | 610 (2010) | 3400 | 1150 | 1340 | 1870 | 2060 | 3200 | 4510 | 4790 | 6220 | 7070 |
| 2026-05-03 11:45 | 10.43 | 6500 | 9190 (1972) | 610 (2010) | 3400 | 1150 | 1340 | 1870 | 2060 | 3200 | 4510 | 4790 | 6220 | 7070 |
| 2026-05-03 10:45 | 10.42 | 6470 | 9190 (1972) | 610 (2010) | 3400 | 1150 | 1340 | 1870 | 2060 | 3200 | 4510 | 4790 | 6220 | 7070 |
| 2026-05-03 09:45 | 10.45 | 6550 | 9190 (1972) | 610 (2010) | 3400 | 1150 | 1340 | 1870 | 2060 | 3200 | 4510 | 4790 | 6220 | 7070 |
| 2026-05-03 08:45 | 10.47 | 6600 | 9190 (1972) | 610 (2010) | 3400 | 1150 | 1340 | 1870 | 2060 | 3200 | 4510 | 4790 | 6220 | 7070 |
| 2026-05-03 07:45 | 10.47 | 6600 | 9190 (1972) | 610 (2010) | 3400 | 1150 | 1340 | 1870 | 2060 | 3200 | 4510 | 4790 | 6220 | 7070 |
| 2026-05-03 06:45 | 10.46 | 6580 | 9190 (1972) | 610 (2010) | 3400 | 1150 | 1340 | 1870 | 2060 | 3200 | 4510 | 4790 | 6220 | 7070 |
| 2026-05-03 05:45 | 10.48 | 6630 | 9190 (1972) | 610 (2010) | 3400 | 1150 | 1340 | 1870 | 2060 | 3200 | 4510 | 4790 | 6220 | 7070 |
| 2026-05-03 04:45 | 10.52 | 6740 | 9190 (1972) | 610 (2010) | 3400 | 1150 | 1340 | 1870 | 2060 | 3200 | 4510 | 4790 | 6220 | 7070 |
| 2026-05-03 03:45 | 10.52 | 6740 | 9190 (1972) | 610 (2010) | 3400 | 1150 | 1340 | 1870 | 2060 | 3200 | 4510 | 4790 | 6220 | 7070 |
| 2026-05-03 02:45 | 10.50 | 6680 | 9190 (1972) | 610 (2010) | 3400 | 1150 | 1340 | 1870 | 2060 | 3200 | 4510 | 4790 | 6220 | 7070 |
| 2026-05-03 01:45 | 10.50 | 6680 | 9190 (1972) | 610 (2010) | 3400 | 1150 | 1340 | 1870 | 2060 | 3200 | 4510 | 4790 | 6220 | 7070 |
| 2026-05-03 00:45 | 10.53 | 6760 | 9190 (1972) | 610 (2010) | 3400 | 1150 | 1340 | 1870 | 2060 | 3200 | 4510 | 4790 | 6220 | 7070 |
| 2026-05-02 23:45 | 10.50 | 6680 | 9190 (1972) | 610 (2010) | 3400 | 1150 | 1340 | 1870 | 2060 | 3200 | 4510 | 4790 | 6220 | 7070 |
| 2026-05-02 22:45 | 10.58 | 6890 | 9440 (1972) | 621 (2010) | 3530 | 1190 | 1350 | 2000 | 2090 | 3270 | 4710 | 4910 | 6500 | 7340 |
| 2026-05-02 21:45 | 10.55 | 6810 | 9440 (1972) | 621 (2010) | 3530 | 1190 | 1350 | 2000 | 2090 | 3270 | 4710 | 4910 | 6500 | 7340 |
| 2026-05-02 20:45 | 10.56 | 6840 | 9440 (1972) | 621 (2010) | 3530 | 1190 | 1350 | 2000 | 2090 | 3270 | 4710 | 4910 | 6500 | 7340 |
| 2026-05-02 18:45 | 10.59 | 6920 | 9440 (1972) | 621 (2010) | 3530 | 1190 | 1350 | 2000 | 2090 | 3270 | 4710 | 4910 | 6500 | 7340 |
| 2026-05-02 17:45 | 10.57 | 6860 | 9440 (1972) | 621 (2010) | 3530 | 1190 | 1350 | 2000 | 2090 | 3270 | 4710 | 4910 | 6500 | 7340 |
| 2026-05-02 16:45 | 10.57 | 6860 | 9440 (1972) | 621 (2010) | 3530 | 1190 | 1350 | 2000 | 2090 | 3270 | 4710 | 4910 | 6500 | 7340 |
| 2026-05-02 15:45 | 10.56 | 6840 | 9440 (1972) | 621 (2010) | 3530 | 1190 | 1350 | 2000 | 2090 | 3270 | 4710 | 4910 | 6500 | 7340 |
| 2026-05-02 14:45 | 10.59 | 6920 | 9440 (1972) | 621 (2010) | 3530 | 1190 | 1350 | 2000 | 2090 | 3270 | 4710 | 4910 | 6500 | 7340 |
| 2026-05-02 13:45 | 10.59 | 6920 | 9440 (1972) | 621 (2010) | 3530 | 1190 | 1350 | 2000 | 2090 | 3270 | 4710 | 4910 | 6500 | 7340 |
| 2026-05-02 12:45 | 10.59 | 6920 | 9440 (1972) | 621 (2010) | 3530 | 1190 | 1350 | 2000 | 2090 | 3270 | 4710 | 4910 | 6500 | 7340 |
| 2026-05-02 11:45 | 10.61 | 6970 | 9440 (1972) | 621 (2010) | 3530 | 1190 | 1350 | 2000 | 2090 | 3270 | 4710 | 4910 | 6500 | 7340 |
| 2026-05-02 10:45 | 10.63 | 7020 | 9440 (1972) | 621 (2010) | 3530 | 1190 | 1350 | 2000 | 2090 | 3270 | 4710 | 4910 | 6500 | 7340 |
| 2026-05-02 09:45 | 10.65 | 7070 | 9440 (1972) | 621 (2010) | 3530 | 1190 | 1350 | 2000 | 2090 | 3270 | 4710 | 4910 | 6500 | 7340 |
| 2026-05-02 08:45 | 10.63 | 7020 | 9440 (1972) | 621 (2010) | 3530 | 1190 | 1350 | 2000 | 2090 | 3270 | 4710 | 4910 | 6500 | 7340 |
| 2026-05-02 07:45 | 10.60 | 6940 | 9440 (1972) | 621 (2010) | 3530 | 1190 | 1350 | 2000 | 2090 | 3270 | 4710 | 4910 | 6500 | 7340 |
| 2026-05-02 06:45 | 10.66 | 7100 | 9440 (1972) | 621 (2010) | 3530 | 1190 | 1350 | 2000 | 2090 | 3270 | 4710 | 4910 | 6500 | 7340 |
| 2026-05-02 05:45 | 10.63 | 7020 | 9440 (1972) | 621 (2010) | 3530 | 1190 | 1350 | 2000 | 2090 | 3270 | 4710 | 4910 | 6500 | 7340 |
| 2026-05-02 04:45 | 10.65 | 7070 | 9440 (1972) | 621 (2010) | 3530 | 1190 | 1350 | 2000 | 2090 | 3270 | 4710 | 4910 | 6500 | 7340 |
| 2026-05-02 03:45 | 10.67 | 7130 | 9440 (1972) | 621 (2010) | 3530 | 1190 | 1350 | 2000 | 2090 | 3270 | 4710 | 4910 | 6500 | 7340 |
| 2026-05-02 02:45 | 10.67 | 7130 | 9440 (1972) | 621 (2010) | 3530 | 1190 | 1350 | 2000 | 2090 | 3270 | 4710 | 4910 | 6500 | 7340 |
| 2026-05-02 01:45 | 10.75 | 7340 | 9440 (1972) | 621 (2010) | 3530 | 1190 | 1350 | 2000 | 2090 | 3270 | 4710 | 4910 | 6500 | 7340 |
| 2026-05-02 00:45 | 10.67 | 7130 | 9440 (1972) | 621 (2010) | 3530 | 1190 | 1350 | 2000 | 2090 | 3270 | 4710 | 4910 | 6500 | 7340 |
| 2026-05-01 23:45 | 10.65 | 7070 | 9440 (1972) | 621 (2010) | 3530 | 1190 | 1350 | 2000 | 2090 | 3270 | 4710 | 4910 | 6500 | 7340 |
| 2026-05-01 22:45 | 10.70 | 7210 | 9670 (1939) | 625 (2010) | 3680 | 1210 | 1390 | 2110 | 2260 | 3300 | 4890 | 5260 | 6930 | 7410 |
| 2026-05-01 21:45 | 10.75 | 7340 | 9670 (1939) | 625 (2010) | 3680 | 1210 | 1390 | 2110 | 2260 | 3300 | 4890 | 5260 | 6930 | 7410 |
| 2026-05-01 19:45 | 10.68 | 7150 | 9670 (1939) | 625 (2010) | 3680 | 1210 | 1390 | 2110 | 2260 | 3300 | 4890 | 5260 | 6930 | 7410 |
| 2026-05-01 18:45 | 10.68 | 7150 | 9670 (1939) | 625 (2010) | 3680 | 1210 | 1390 | 2110 | 2260 | 3300 | 4890 | 5260 | 6930 | 7410 |
| 2026-05-01 17:45 | 10.73 | 7290 | 9670 (1939) | 625 (2010) | 3680 | 1210 | 1390 | 2110 | 2260 | 3300 | 4890 | 5260 | 6930 | 7410 |
| 2026-05-01 16:45 | 10.72 | 7260 | 9670 (1939) | 625 (2010) | 3680 | 1210 | 1390 | 2110 | 2260 | 3300 | 4890 | 5260 | 6930 | 7410 |
| 2026-05-01 15:45 | 10.72 | 7260 | 9670 (1939) | 625 (2010) | 3680 | 1210 | 1390 | 2110 | 2260 | 3300 | 4890 | 5260 | 6930 | 7410 |
| 2026-05-01 14:45 | 10.73 | 7290 | 9670 (1939) | 625 (2010) | 3680 | 1210 | 1390 | 2110 | 2260 | 3300 | 4890 | 5260 | 6930 | 7410 |
| 2026-05-01 13:45 | 10.72 | 7260 | 9670 (1939) | 625 (2010) | 3680 | 1210 | 1390 | 2110 | 2260 | 3300 | 4890 | 5260 | 6930 | 7410 |
| 2026-05-01 12:45 | 10.75 | 7340 | 9670 (1939) | 625 (2010) | 3680 | 1210 | 1390 | 2110 | 2260 | 3300 | 4890 | 5260 | 6930 | 7410 |
| 2026-05-01 11:45 | 10.75 | 7340 | 9670 (1939) | 625 (2010) | 3680 | 1210 | 1390 | 2110 | 2260 | 3300 | 4890 | 5260 | 6930 | 7410 |
| 2026-05-01 10:45 | 10.72 | 7260 | 9670 (1939) | 625 (2010) | 3680 | 1210 | 1390 | 2110 | 2260 | 3300 | 4890 | 5260 | 6930 | 7410 |
| 2026-05-01 09:45 | 10.73 | 7290 | 9670 (1939) | 625 (2010) | 3680 | 1210 | 1390 | 2110 | 2260 | 3300 | 4890 | 5260 | 6930 | 7410 |
| 2026-05-01 07:45 | 10.75 | 7340 | 9670 (1939) | 625 (2010) | 3680 | 1210 | 1390 | 2110 | 2260 | 3300 | 4890 | 5260 | 6930 | 7410 |
| 2026-05-01 06:45 | 10.73 | 7290 | 9670 (1939) | 625 (2010) | 3680 | 1210 | 1390 | 2110 | 2260 | 3300 | 4890 | 5260 | 6930 | 7410 |
| 2026-05-01 05:45 | 10.72 | 7260 | 9670 (1939) | 625 (2010) | 3680 | 1210 | 1390 | 2110 | 2260 | 3300 | 4890 | 5260 | 6930 | 7410 |
| 2026-05-01 04:45 | 10.80 | 7480 | 9670 (1939) | 625 (2010) | 3680 | 1210 | 1390 | 2110 | 2260 | 3300 | 4890 | 5260 | 6930 | 7410 |
| 2026-05-01 03:45 | 10.73 | 7290 | 9670 (1939) | 625 (2010) | 3680 | 1210 | 1390 | 2110 | 2260 | 3300 | 4890 | 5260 | 6930 | 7410 |
| 2026-05-01 02:45 | 10.72 | 7260 | 9670 (1939) | 625 (2010) | 3680 | 1210 | 1390 | 2110 | 2260 | 3300 | 4890 | 5260 | 6930 | 7410 |
| 2026-05-01 01:45 | 10.77 | 7400 | 9670 (1939) | 625 (2010) | 3680 | 1210 | 1390 | 2110 | 2260 | 3300 | 4890 | 5260 | 6930 | 7410 |
| 2026-05-01 00:45 | 10.75 | 7340 | 9670 (1939) | 625 (2010) | 3680 | 1210 | 1390 | 2110 | 2260 | 3300 | 4890 | 5260 | 6930 | 7410 |
| 2026-04-30 23:45 | 10.78 | 7420 | 9670 (1939) | 625 (2010) | 3680 | 1210 | 1390 | 2110 | 2260 | 3300 | 4890 | 5260 | 6930 | 7410 |
| 2026-04-30 22:45 | 10.72 | 7260 | 11400 (1939) | 627 (2010) | 3860 | 1260 | 1500 | 2200 | 2320 | 3450 | 5100 | 5570 | 6820 | 7820 |
| 2026-04-30 21:45 | 10.72 | 7260 | 11400 (1939) | 627 (2010) | 3860 | 1260 | 1500 | 2200 | 2320 | 3450 | 5100 | 5570 | 6820 | 7820 |
| 2026-04-30 19:45 | 10.76 | 7370 | 11400 (1939) | 627 (2010) | 3860 | 1260 | 1500 | 2200 | 2320 | 3450 | 5100 | 5570 | 6820 | 7820 |
| 2026-04-30 18:45 | 10.76 | 7370 | 11400 (1939) | 627 (2010) | 3860 | 1260 | 1500 | 2200 | 2320 | 3450 | 5100 | 5570 | 6820 | 7820 |
| 2026-04-30 17:45 | 10.75 | 7340 | 11400 (1939) | 627 (2010) | 3860 | 1260 | 1500 | 2200 | 2320 | 3450 | 5100 | 5570 | 6820 | 7820 |
| 2026-04-30 16:45 | 10.75 | 7340 | 11400 (1939) | 627 (2010) | 3860 | 1260 | 1500 | 2200 | 2320 | 3450 | 5100 | 5570 | 6820 | 7820 |
| 2026-04-30 15:45 | 10.74 | 7310 | 11400 (1939) | 627 (2010) | 3860 | 1260 | 1500 | 2200 | 2320 | 3450 | 5100 | 5570 | 6820 | 7820 |
| 2026-04-30 14:45 | 10.75 | 7340 | 11400 (1939) | 627 (2010) | 3860 | 1260 | 1500 | 2200 | 2320 | 3450 | 5100 | 5570 | 6820 | 7820 |
| 2026-04-30 13:45 | 10.77 | 7400 | 11400 (1939) | 627 (2010) | 3860 | 1260 | 1500 | 2200 | 2320 | 3450 | 5100 | 5570 | 6820 | 7820 |
| 2026-04-30 12:45 | 10.75 | 7340 | 11400 (1939) | 627 (2010) | 3860 | 1260 | 1500 | 2200 | 2320 | 3450 | 5100 | 5570 | 6820 | 7820 |
| 2026-04-30 11:45 | 10.76 | 7370 | 11400 (1939) | 627 (2010) | 3860 | 1260 | 1500 | 2200 | 2320 | 3450 | 5100 | 5570 | 6820 | 7820 |
| 2026-04-30 10:45 | 10.75 | 7340 | 11400 (1939) | 627 (2010) | 3860 | 1260 | 1500 | 2200 | 2320 | 3450 | 5100 | 5570 | 6820 | 7820 |
| 2026-04-30 09:45 | 10.73 | 7290 | 11400 (1939) | 627 (2010) | 3860 | 1260 | 1500 | 2200 | 2320 | 3450 | 5100 | 5570 | 6820 | 7820 |
| 2026-04-30 06:45 | 10.75 | 7340 | 11400 (1939) | 627 (2010) | 3860 | 1260 | 1500 | 2200 | 2320 | 3450 | 5100 | 5570 | 6820 | 7820 |
| 2026-04-30 05:45 | 10.77 | 7400 | 11400 (1939) | 627 (2010) | 3860 | 1260 | 1500 | 2200 | 2320 | 3450 | 5100 | 5570 | 6820 | 7820 |
| 2026-04-30 01:45 | 10.76 | 7370 | 11400 (1939) | 627 (2010) | 3860 | 1260 | 1500 | 2200 | 2320 | 3450 | 5100 | 5570 | 6820 | 7820 |
| 2026-04-30 00:45 | 10.73 | 7290 | 11400 (1939) | 627 (2010) | 3860 | 1260 | 1500 | 2200 | 2320 | 3450 | 5100 | 5570 | 6820 | 7820 |
| 2026-04-29 23:45 | 10.76 | 7370 | 11400 (1939) | 627 (2010) | 3860 | 1260 | 1500 | 2200 | 2320 | 3450 | 5100 | 5570 | 6820 | 7820 |
| 2026-04-29 22:45 | 10.77 | 7400 | 13800 (1939) | 642 (2010) | 4050 | 1290 | 1630 | 2200 | 2460 | 3660 | 5120 | 5660 | 7120 | 8430 |
| 2026-04-29 21:45 | 10.76 | 7370 | 13800 (1939) | 642 (2010) | 4050 | 1290 | 1630 | 2200 | 2460 | 3660 | 5120 | 5660 | 7120 | 8430 |
| 2026-04-29 20:45 | 10.76 | 7370 | 13800 (1939) | 642 (2010) | 4050 | 1290 | 1630 | 2200 | 2460 | 3660 | 5120 | 5660 | 7120 | 8430 |
| 2026-04-29 19:45 | 10.80 | 7480 | 13800 (1939) | 642 (2010) | 4050 | 1290 | 1630 | 2200 | 2460 | 3660 | 5120 | 5660 | 7120 | 8430 |
| 2026-04-29 18:45 | 10.78 | 7420 | 13800 (1939) | 642 (2010) | 4050 | 1290 | 1630 | 2200 | 2460 | 3660 | 5120 | 5660 | 7120 | 8430 |
| 2026-04-29 17:45 | 10.79 | 7450 | 13800 (1939) | 642 (2010) | 4050 | 1290 | 1630 | 2200 | 2460 | 3660 | 5120 | 5660 | 7120 | 8430 |
| 2026-04-29 16:45 | 10.78 | 7420 | 13800 (1939) | 642 (2010) | 4050 | 1290 | 1630 | 2200 | 2460 | 3660 | 5120 | 5660 | 7120 | 8430 |
| 2026-04-29 15:45 | 10.78 | 7420 | 13800 (1939) | 642 (2010) | 4050 | 1290 | 1630 | 2200 | 2460 | 3660 | 5120 | 5660 | 7120 | 8430 |
| 2026-04-29 14:45 | 10.80 | 7480 | 13800 (1939) | 642 (2010) | 4050 | 1290 | 1630 | 2200 | 2460 | 3660 | 5120 | 5660 | 7120 | 8430 |
| 2026-04-29 13:45 | 10.77 | 7400 | 13800 (1939) | 642 (2010) | 4050 | 1290 | 1630 | 2200 | 2460 | 3660 | 5120 | 5660 | 7120 | 8430 |
| 2026-04-29 12:45 | 10.75 | 7340 | 13800 (1939) | 642 (2010) | 4050 | 1290 | 1630 | 2200 | 2460 | 3660 | 5120 | 5660 | 7120 | 8430 |
| 2026-04-29 11:45 | 10.83 | 7560 | 13800 (1939) | 642 (2010) | 4050 | 1290 | 1630 | 2200 | 2460 | 3660 | 5120 | 5660 | 7120 | 8430 |
| 2026-04-29 10:45 | 10.80 | 7480 | 13800 (1939) | 642 (2010) | 4050 | 1290 | 1630 | 2200 | 2460 | 3660 | 5120 | 5660 | 7120 | 8430 |
| 2026-04-29 09:45 | 10.82 | 7530 | 13800 (1939) | 642 (2010) | 4050 | 1290 | 1630 | 2200 | 2460 | 3660 | 5120 | 5660 | 7120 | 8430 |
| 2026-04-29 08:45 | 10.80 | 7480 | 13800 (1939) | 642 (2010) | 4050 | 1290 | 1630 | 2200 | 2460 | 3660 | 5120 | 5660 | 7120 | 8430 |
| 2026-04-29 07:45 | 10.80 | 7480 | 13800 (1939) | 642 (2010) | 4050 | 1290 | 1630 | 2200 | 2460 | 3660 | 5120 | 5660 | 7120 | 8430 |
| 2026-04-29 06:45 | 10.81 | 7510 | 13800 (1939) | 642 (2010) | 4050 | 1290 | 1630 | 2200 | 2460 | 3660 | 5120 | 5660 | 7120 | 8430 |
| 2026-04-29 05:45 | 10.79 | 7450 | 13800 (1939) | 642 (2010) | 4050 | 1290 | 1630 | 2200 | 2460 | 3660 | 5120 | 5660 | 7120 | 8430 |
| 2026-04-29 04:45 | 10.84 | 7590 | 13800 (1939) | 642 (2010) | 4050 | 1290 | 1630 | 2200 | 2460 | 3660 | 5120 | 5660 | 7120 | 8430 |
| 2026-04-29 03:45 | 10.81 | 7510 | 13800 (1939) | 642 (2010) | 4050 | 1290 | 1630 | 2200 | 2460 | 3660 | 5120 | 5660 | 7120 | 8430 |
| 2026-04-29 02:45 | 10.83 | 7560 | 13800 (1939) | 642 (2010) | 4050 | 1290 | 1630 | 2200 | 2460 | 3660 | 5120 | 5660 | 7120 | 8430 |
| 2026-04-29 01:45 | 10.81 | 7510 | 13800 (1939) | 642 (2010) | 4050 | 1290 | 1630 | 2200 | 2460 | 3660 | 5120 | 5660 | 7120 | 8430 |
| 2026-04-29 00:45 | 10.84 | 7590 | 13800 (1939) | 642 (2010) | 4050 | 1290 | 1630 | 2200 | 2460 | 3660 | 5120 | 5660 | 7120 | 8430 |
| 2026-04-28 23:45 | 10.85 | 7620 | 13800 (1939) | 642 (2010) | 4050 | 1290 | 1630 | 2200 | 2460 | 3660 | 5120 | 5660 | 7120 | 8430 |
| 2026-04-28 22:45 | 10.84 | 7590 | 14400 (1939) | 662 (2010) | 4200 | 1340 | 1610 | 2300 | 2600 | 3690 | 5470 | 5810 | 7390 | 9050 |
| 2026-04-28 21:45 | 10.84 | 7590 | 14400 (1939) | 662 (2010) | 4200 | 1340 | 1610 | 2300 | 2600 | 3690 | 5470 | 5810 | 7390 | 9050 |
| 2026-04-28 20:45 | 10.85 | 7620 | 14400 (1939) | 662 (2010) | 4200 | 1340 | 1610 | 2300 | 2600 | 3690 | 5470 | 5810 | 7390 | 9050 |
| 2026-04-28 19:45 | 10.87 | 7670 | 14400 (1939) | 662 (2010) | 4200 | 1340 | 1610 | 2300 | 2600 | 3690 | 5470 | 5810 | 7390 | 9050 |
| 2026-04-28 18:45 | 10.87 | 7670 | 14400 (1939) | 662 (2010) | 4200 | 1340 | 1610 | 2300 | 2600 | 3690 | 5470 | 5810 | 7390 | 9050 |
| 2026-04-28 17:45 | 10.90 | 7760 | 14400 (1939) | 662 (2010) | 4200 | 1340 | 1610 | 2300 | 2600 | 3690 | 5470 | 5810 | 7390 | 9050 |
| 2026-04-28 16:45 | 10.87 | 7670 | 14400 (1939) | 662 (2010) | 4200 | 1340 | 1610 | 2300 | 2600 | 3690 | 5470 | 5810 | 7390 | 9050 |
| 2026-04-28 15:45 | 10.86 | 7650 | 14400 (1939) | 662 (2010) | 4200 | 1340 | 1610 | 2300 | 2600 | 3690 | 5470 | 5810 | 7390 | 9050 |
| 2026-04-28 14:45 | 10.86 | 7650 | 14400 (1939) | 662 (2010) | 4200 | 1340 | 1610 | 2300 | 2600 | 3690 | 5470 | 5810 | 7390 | 9050 |
| 2026-04-28 13:45 | 10.86 | 7650 | 14400 (1939) | 662 (2010) | 4200 | 1340 | 1610 | 2300 | 2600 | 3690 | 5470 | 5810 | 7390 | 9050 |
| 2026-04-28 12:45 | 10.91 | 7790 | 14400 (1939) | 662 (2010) | 4200 | 1340 | 1610 | 2300 | 2600 | 3690 | 5470 | 5810 | 7390 | 9050 |
| 2026-04-28 11:45 | 10.91 | 7790 | 14400 (1939) | 662 (2010) | 4200 | 1340 | 1610 | 2300 | 2600 | 3690 | 5470 | 5810 | 7390 | 9050 |
| 2026-04-28 10:45 | 10.88 | 7700 | 14400 (1939) | 662 (2010) | 4200 | 1340 | 1610 | 2300 | 2600 | 3690 | 5470 | 5810 | 7390 | 9050 |
| 2026-04-28 09:45 | 10.93 | 7840 | 14400 (1939) | 662 (2010) | 4200 | 1340 | 1610 | 2300 | 2600 | 3690 | 5470 | 5810 | 7390 | 9050 |
| 2026-04-28 08:45 | 10.94 | 7870 | 14400 (1939) | 662 (2010) | 4200 | 1340 | 1610 | 2300 | 2600 | 3690 | 5470 | 5810 | 7390 | 9050 |
| 2026-04-28 07:45 | 10.91 | 7790 | 14400 (1939) | 662 (2010) | 4200 | 1340 | 1610 | 2300 | 2600 | 3690 | 5470 | 5810 | 7390 | 9050 |
| 2026-04-28 06:45 | 10.93 | 7840 | 14400 (1939) | 662 (2010) | 4200 | 1340 | 1610 | 2300 | 2600 | 3690 | 5470 | 5810 | 7390 | 9050 |
| 2026-04-28 05:45 | 10.93 | 7840 | 14400 (1939) | 662 (2010) | 4200 | 1340 | 1610 | 2300 | 2600 | 3690 | 5470 | 5810 | 7390 | 9050 |
| 2026-04-28 04:45 | 10.91 | 7790 | 14400 (1939) | 662 (2010) | 4200 | 1340 | 1610 | 2300 | 2600 | 3690 | 5470 | 5810 | 7390 | 9050 |
| 2026-04-28 03:45 | 10.95 | 7900 | 14400 (1939) | 662 (2010) | 4200 | 1340 | 1610 | 2300 | 2600 | 3690 | 5470 | 5810 | 7390 | 9050 |
| 2026-04-28 01:45 | 10.96 | 7930 | 14400 (1939) | 662 (2010) | 4200 | 1340 | 1610 | 2300 | 2600 | 3690 | 5470 | 5810 | 7390 | 9050 |
| 2026-04-28 00:45 | 10.94 | 7870 | 14400 (1939) | 662 (2010) | 4200 | 1340 | 1610 | 2300 | 2600 | 3690 | 5470 | 5810 | 7390 | 9050 |
| 2026-04-27 23:45 | 10.99 | 8020 | 14400 (1939) | 662 (2010) | 4200 | 1340 | 1610 | 2300 | 2600 | 3690 | 5470 | 5810 | 7390 | 9050 |
A total of 164 rows are displayed for years 1938 through 2024.